Regional Weather Roundup
Issued by NWS Goodland, KS

Home | Current Version | Previous Version | Graphics & Text | Print | Product List | Glossary On
Versions: 1 2 3 4 5 6 7 8 9 10 11 12 13 14 15 16 17 18 19 20 21 22 23 24 25 26 27 28 29 30 31 32 33 34 35 36 37 38 39 40 41 42 43 44 45 46 47 48 49 50
592
ASUS43 KGLD 220708
RWRGLD

GOODLAND FORECAST AREA HOURLY WEATHER ROUNDUP
NATIONAL WEATHER SERVICE GOODLAND KS
1200 AM MST SUN JAN 22 2017

...OFFICIAL OBSERVATIONS...

CITY           SKY/WX    TMP DP  RH WIND       PRES   REMARKS
GOODLAND KS    CLOUDY    28  25  88 NW8       29.64R
HILL CITY KS   PTCLDY    34  32  92 N10       29.61R
IMPERIAL NEB   PTCLDY    31  26  82 NW8       29.66R
MCCOOK NEB     CLOUDY    31  27  85 NW10      29.63R
AKRON CO       CLOUDY    30  25  81 W8        29.67R
BURLINGTON CO  CLEAR     31  27  85 NW9       29.66R
LIMON CO       PTCLDY    24  23  96 W8        29.68R
$$

...UNOFFICIAL OBSERVATIONS...

CITY           SKY/WX    TMP DP  RH WIND       PRES   REMARKS
LENORA KS        N/A     32  32 100 NW8         N/A
NORTON KS      CLEAR     34  27  75 NW12      29.61S
SHARON SPRINGS   N/A     33  29  86 N10         N/A
TRENTON NEB      N/A     31  32 100 N6          N/A
KIT CARSON CO    N/A     31  27  85 MISG        N/A
YUMA CO        CLOUDY    27  23  86 W7        29.66S
$$




USA.gov is the U.S. government's official web portal to all federal, state and local government web resources and services.